{"data":{"norad_id":67053,"intl_designator":"2025-294Z","name":"STARLINK-35739","alt_names":[],"object_type":"PAYLOAD","status":"ACTIVE","operator":null,"country":"US","launch_date":"2025-12-11","launch_site_code":"AFETR","launch_vehicle":null,"mission":null,"orbit_class":"UNKNOWN","rcs_meters":null,"size_class":null,"mass_kg":null,"dimensions":null,"purposes":["comms"],"wikipedia_slug":null,"has_3d_model":false,"image_url":null,"decayed_at":null,"tle_current":{"epoch":"2026-09-19T08:07:27.063552Z","epoch_age_seconds":181873,"freshness":"STALE","line1":"1 67053U 25294Z   26262.33850768  .00011213  00000+0  41612-3 0  9995","line2":"2 67053  43.0043  24.5854 0000805 270.0648  90.0111 15.27599635 44412","mean_motion":15.27599635,"eccentricity":8.05e-5,"inclination_deg":43.0043,"raan_deg":24.5854,"arg_perigee_deg":270.0648,"mean_anomaly_deg":90.0111,"bstar":0.00041612,"rev_number":4441,"period_min":94.265537056115,"perigee_km":482.43798166791,"apogee_km":483.5426231636,"semimajor_km":6861.1273024158,"source":"CELESTRAK","updated_at":"2026-09-21T09:00:36.095851Z"}}}